TITAN 3C TRANSTAGE DEB, 1671

Orbit data source: Space-Track

TITAN 3C TRANSTAGE DEB, 1671 is space debris in LEO originally from a launch on Fri, 15 Oct 1965 UTC launched from the Air Force Eastern Test Range (AFETR). Debris objects in space refer to the collection of defunct objects orbiting the Earth. Examples of debris include non-operational satellites, rocket bodies, and fragments generated from explosions, collisions, or faulty payload assembly.

Loading next visibility...
Identifier
1671, 1965-082AJ
Orbit
LEO
Country
Flag of USUS
Related business
Manufacturer
Unknown
Mission
Spacecraft
Bus & Motor
Unknown
Mass
Unknown
Launch date (UTC)
1965-10-15 (60 years ago)
Launch vehicle
Unknown
Launch site
Air Force Eastern Test Range (AFETR)
Object type
Payload
Rocket body
Debris
Shape & HBR
Unknown shape, 0.3 m
Radar Cross Section
Medium (>0.1 m² and <1 m²)

Expand to show TLE details & history
Last TLE update: 16 hours ago

TLE from 16 hours ago
0 TITAN 3C TRANSTAGE DEB
1 01671U 65082AJ  26034.55434969  .00000555  00000-0  11944-3 0  9993
2 01671  32.1604 112.9135 0051996 121.9441 238.6272 14.53893979166930
Epoch: 2026-02-03T13:18Z
TLE epoch observation values (Epoch: 2026-02-03T13:18:15.813Z)
Latitude
0.00002°
Longitude
139.61403°
Altitude
730.946 km
Speed
7.482 km/s
True Right ascension
07h 31m 39s
True Declination
0° 00' 00"
Sunlit
Object was in full shadow at epoch
Visualization orbit readout
Latitude
Unknown
Longitude
Unknown
Altitude
Unknown
Speed
Unknown
Apparent Right ascension
Unknown
Apparent Declination
Unknown
Sunlit
N/A
Visualization observer readout
Local Sidereal Time
07:26:56
Azimuth
Unknown
Elevation
Unknown
Doppler factor
Unknown
Orbital elements
Apogee altitude
753.425 km
Perigee altitude
679.646 km
Semi-major axis
7,094.673 km
Eccentricity
0.0052
Inclination
32.1604°
RAAN
112.9135°
Arg. of periapsis
121.9441°
True anomaly
238.1202°
Mean anomaly
238.6272°
Eccentric anomaly
238.37353°
Mean motion
3.63199 °/min
Orbital period
99.12 mins
BSTAR
0.00011944

Documentation

Showing up to 5 results
|